EWG6AT EGCC-EDDL

Flight info

Callsign EWG6AT
Flight time 1h 3m
Altitude 35000
Route SONEX L975 DESIG L603 LAMSO DCT EVELI DCT PAM P62 PISAP PISAP1A
Aircraft A321/M-SDE3FGHIRWY/LB1

Departure

Time 2026-05-07 15:04
Airport Manchester Airport (EGCC)

Arrival

Time 2026-05-07 16:08
Airport Düsseldorf Airport (EDDL)
Time Latitude Longitude Altitude Speed Heading
2026-05-07 14:06 53.36892 -2.28795 229 ft 0 kts 133°
2026-05-07 14:11 53.36892 -2.28796 229 ft 0 kts 133°
2026-05-07 14:18 53.36893 -2.28796 229 ft 0 kts 133°
2026-05-07 14:27 53.36893 -2.28797 229 ft 0 kts 133°
2026-05-07 14:37 53.36897 -2.28801 229 ft 4 kts 129°
2026-05-07 14:37 53.36913 -2.28826 231 ft 4 kts 160°
2026-05-07 14:38 53.36934 -2.28825 231 ft 4 kts 217°
2026-05-07 14:38 53.36946 -2.28809 232 ft 1 kts 224°
2026-05-07 14:38 53.36946 -2.28808 232 ft 0 kts 224°
2026-05-07 14:42 53.36945 -2.28810 232 ft 1 kts 224°
2026-05-07 14:43 53.36931 -2.28833 231 ft 5 kts 224°
2026-05-07 14:43 53.36888 -2.28905 229 ft 11 kts 225°
2026-05-07 14:43 53.36828 -2.29002 229 ft 13 kts 218°
2026-05-07 14:43 53.36742 -2.29032 228 ft 13 kts 155°
2026-05-07 14:44 53.36686 -2.28943 228 ft 4 kts 135°
2026-05-07 14:44 53.36682 -2.28937 228 ft 0 kts 135°
2026-05-07 14:44 53.36681 -2.28936 228 ft 0 kts 135°
2026-05-07 14:47 53.36673 -2.28923 228 ft 5 kts 136°
2026-05-07 14:47 53.36626 -2.28883 230 ft 11 kts 148°
2026-05-07 14:47 53.36576 -2.28752 228 ft 16 kts 108°
2026-05-07 14:47 53.36512 -2.28604 228 ft 16 kts 134°
2026-05-07 14:48 53.36433 -2.28472 231 ft 16 kts 135°
2026-05-07 14:48 53.36360 -2.28346 234 ft 14 kts 134°
2026-05-07 14:48 53.36287 -2.28223 239 ft 15 kts 134°
2026-05-07 14:48 53.36213 -2.28097 242 ft 15 kts 135°
2026-05-07 14:49 53.36137 -2.27971 242 ft 16 kts 135°
2026-05-07 14:49 53.36051 -2.27839 241 ft 18 kts 153°
2026-05-07 14:49 53.35929 -2.27845 238 ft 13 kts 187°
2026-05-07 14:49 53.35855 -2.27815 238 ft 0 kts 133°
2026-05-07 14:50 53.35853 -2.27811 238 ft 2 kts 133°
2026-05-07 14:50 53.35847 -2.27800 239 ft 2 kts 131°
2026-05-07 14:50 53.35836 -2.27781 240 ft 0 kts 132°
2026-05-07 14:54 53.35830 -2.27769 240 ft 3 kts 131°
2026-05-07 14:54 53.35804 -2.27719 242 ft 8 kts 131°
2026-05-07 14:54 53.35752 -2.27657 242 ft 10 kts 160°
2026-05-07 14:54 53.35679 -2.27603 241 ft 13 kts 144°
2026-05-07 14:55 53.35608 -2.27505 241 ft 14 kts 140°
2026-05-07 14:55 53.35573 -2.27461 241 ft 0 kts 143°
2026-05-07 14:57 53.35570 -2.27458 241 ft 2 kts 143°
2026-05-07 14:58 53.35541 -2.27419 240 ft 6 kts 141°
2026-05-07 14:58 53.35532 -2.27407 243 ft 0 kts 141°
2026-05-07 14:59 53.35521 -2.27391 243 ft 5 kts 141°
2026-05-07 14:59 53.35485 -2.27343 244 ft 8 kts 141°
2026-05-07 14:59 53.35437 -2.27277 243 ft 11 kts 141°
2026-05-07 14:59 53.35376 -2.27205 242 ft 11 kts 152°
2026-05-07 15:00 53.35304 -2.27200 243 ft 11 kts 189°
2026-05-07 15:00 53.35227 -2.27226 242 ft 13 kts 192°
2026-05-07 15:00 53.35197 -2.27237 242 ft 2 kts 192°
2026-05-07 15:00 53.35178 -2.27243 242 ft 4 kts 191°
2026-05-07 15:01 53.35143 -2.27255 241 ft 0 kts 191°
2026-05-07 15:02 53.35132 -2.27259 240 ft 7 kts 192°
2026-05-07 15:02 53.35043 -2.27288 237 ft 17 kts 192°
2026-05-07 15:02 53.35001 -2.27343 237 ft 0 kts 230°
2026-05-07 15:03 53.34991 -2.27362 239 ft 8 kts 230°
2026-05-07 15:04 53.34787 -2.27773 228 ft 85 kts 231°
2026-05-07 15:04 53.34271 -2.28847 221 ft 149 kts 231°
2026-05-07 15:04 53.33541 -2.30349 555 ft 171 kts 230°
2026-05-07 15:04 53.32817 -2.31858 1561 ft 162 kts 227°
2026-05-07 15:05 53.32118 -2.33320 2317 ft 163 kts 230°
2026-05-07 15:05 53.31646 -2.35120 2903 ft 180 kts 258°
2026-05-07 15:05 53.31765 -2.37287 3394 ft 198 kts 282°
2026-05-07 15:05 53.32327 -2.39489 3841 ft 214 kts 299°
2026-05-07 15:06 53.33287 -2.41488 4313 ft 227 kts 308°
2026-05-07 15:06 53.34481 -2.43425 4610 ft 255 kts 321°
2026-05-07 15:06 53.36184 -2.44671 4906 ft 281 kts 352°
2026-05-07 15:06 53.38127 -2.44379 5033 ft 282 kts 13°
2026-05-07 15:07 53.40050 -2.43786 5114 ft 282 kts
2026-05-07 15:07 53.41990 -2.44073 5040 ft 279 kts 345°
2026-05-07 15:07 53.43875 -2.44874 4996 ft 280 kts 349°
2026-05-07 15:07 53.45816 -2.44814 4982 ft 282 kts 16°
2026-05-07 15:08 53.47525 -2.43271 4987 ft 280 kts 43°
2026-05-07 15:08 53.48717 -2.40710 5429 ft 279 kts 67°
2026-05-07 15:08 53.49218 -2.38038 6178 ft 277 kts 84°
2026-05-07 15:08 53.49419 -2.35447 6823 ft 279 kts 86°
2026-05-07 15:09 53.49646 -2.32193 7580 ft 282 kts 86°
2026-05-07 15:09 53.49866 -2.28897 8343 ft 286 kts 86°
2026-05-07 15:09 53.50086 -2.25552 9130 ft 290 kts 86°
2026-05-07 15:09 53.50309 -2.22162 9905 ft 294 kts 87°
2026-05-07 15:10 53.50536 -2.18678 10319 ft 310 kts 86°
2026-05-07 15:10 53.50778 -2.14943 10494 ft 333 kts 86°
2026-05-07 15:10 53.51037 -2.10935 10634 ft 356 kts 86°
2026-05-07 15:10 53.51311 -2.06728 11037 ft 367 kts 86°
2026-05-07 15:11 53.51592 -2.02432 11645 ft 372 kts 86°
2026-05-07 15:11 53.51875 -1.98099 12316 ft 375 kts 86°
2026-05-07 15:11 53.52177 -1.93732 12946 ft 378 kts 86°
2026-05-07 15:11 53.52265 -1.89321 13577 ft 378 kts 95°
2026-05-07 15:12 53.51935 -1.84941 14166 ft 379 kts 105°
2026-05-07 15:12 53.51237 -1.80663 14707 ft 381 kts 108°
2026-05-07 15:12 53.50490 -1.76381 15254 ft 384 kts 109°
2026-05-07 15:12 53.49721 -1.72063 15799 ft 388 kts 109°
2026-05-07 15:13 53.48939 -1.67712 16341 ft 391 kts 109°
2026-05-07 15:13 53.48149 -1.63319 16867 ft 395 kts 109°
2026-05-07 15:13 53.47357 -1.58890 17375 ft 398 kts 109°
2026-05-07 15:13 53.46560 -1.54422 17877 ft 401 kts 109°
2026-05-07 15:14 53.45755 -1.49918 18368 ft 405 kts 108°
2026-05-07 15:14 53.44942 -1.45385 18798 ft 407 kts 109°
2026-05-07 15:14 53.44120 -1.40824 19260 ft 410 kts 109°
2026-05-07 15:14 53.43292 -1.36234 19725 ft 412 kts 108°
2026-05-07 15:15 53.42459 -1.31622 20186 ft 414 kts 109°
2026-05-07 15:15 53.41617 -1.26986 20646 ft 417 kts 109°
2026-05-07 15:15 53.40771 -1.22328 21106 ft 419 kts 108°
2026-05-07 15:15 53.39921 -1.17640 21552 ft 422 kts 109°
2026-05-07 15:16 53.39064 -1.12924 21988 ft 424 kts 109°
2026-05-07 15:16 53.38202 -1.08190 22424 ft 426 kts 109°
2026-05-07 15:16 53.37331 -1.03428 22868 ft 429 kts 109°
2026-05-07 15:16 53.36449 -0.98643 23290 ft 431 kts 109°
2026-05-07 15:17 53.35559 -0.93832 23695 ft 434 kts 109°
2026-05-07 15:17 53.34664 -0.88999 24049 ft 436 kts 109°
2026-05-07 15:17 53.33765 -0.84151 24432 ft 437 kts 109°
2026-05-07 15:17 53.32861 -0.79290 24814 ft 438 kts 109°
2026-05-07 15:18 53.31954 -0.74422 25190 ft 439 kts 109°
2026-05-07 15:18 53.31041 -0.69535 25576 ft 440 kts 109°
2026-05-07 15:18 53.30126 -0.64644 25953 ft 442 kts 109°
2026-05-07 15:18 53.29206 -0.59734 26326 ft 443 kts 109°
2026-05-07 15:19 53.28281 -0.54812 26692 ft 444 kts 109°
2026-05-07 15:19 53.27350 -0.49887 27044 ft 445 kts 109°
2026-05-07 15:19 53.26414 -0.44944 27379 ft 447 kts 109°
2026-05-07 15:19 53.25474 -0.39992 27698 ft 448 kts 109°
2026-05-07 15:20 53.24529 -0.35034 28008 ft 449 kts 109°
2026-05-07 15:20 53.23582 -0.30071 28315 ft 449 kts 109°
2026-05-07 15:20 53.22634 -0.25108 28724 ft 447 kts 109°
2026-05-07 15:20 53.21690 -0.20183 29159 ft 445 kts 108°
2026-05-07 15:21 53.20749 -0.15277 29584 ft 443 kts 109°
2026-05-07 15:21 53.19810 -0.10404 30018 ft 440 kts 109°
2026-05-07 15:21 53.18873 -0.05549 30405 ft 438 kts 109°
2026-05-07 15:21 53.17938 -0.00719 30737 ft 437 kts 109°
2026-05-07 15:22 53.17002 0.04098 31068 ft 436 kts 109°
2026-05-07 15:22 53.16065 0.08893 31387 ft 435 kts 109°
2026-05-07 15:22 53.15125 0.13687 31707 ft 435 kts 109°
2026-05-07 15:22 53.14188 0.18467 32037 ft 434 kts 109°
2026-05-07 15:23 53.13252 0.23246 32353 ft 433 kts 109°
2026-05-07 15:23 53.12634 0.26395 32561 ft 432 kts 109°
2026-05-07 15:23 53.11698 0.31158 32886 ft 432 kts 109°
2026-05-07 15:23 53.10762 0.35899 33194 ft 431 kts 109°
2026-05-07 15:24 53.09825 0.40630 33497 ft 430 kts 109°
2026-05-07 15:24 53.08887 0.45353 33805 ft 429 kts 109°
2026-05-07 15:24 53.07953 0.50065 34102 ft 429 kts 109°
2026-05-07 15:24 53.07018 0.54775 34335 ft 429 kts 109°
2026-05-07 15:25 53.06080 0.59483 34519 ft 430 kts 109°
2026-05-07 15:25 53.05132 0.64201 34703 ft 431 kts 109°
2026-05-07 15:25 53.04176 0.68936 34874 ft 432 kts 109°
2026-05-07 15:25 53.03219 0.73670 35043 ft 434 kts 109°
2026-05-07 15:26 53.01292 0.83206 35088 ft 436 kts 109°
2026-05-07 15:26 52.99351 0.92752 35089 ft 437 kts 109°
2026-05-07 15:27 52.97582 1.02389 35095 ft 437 kts 101°
2026-05-07 15:27 52.96456 1.12295 35094 ft 437 kts 102°
2026-05-07 15:28 52.95316 1.22199 35092 ft 437 kts 102°
2026-05-07 15:28 52.94160 1.32103 35093 ft 437 kts 102°
2026-05-07 15:29 52.92984 1.42009 35094 ft 438 kts 102°
2026-05-07 15:29 52.91813 1.51913 35096 ft 438 kts 102°
2026-05-07 15:30 52.90635 1.61831 35100 ft 439 kts 102°
2026-05-07 15:30 52.89446 1.71747 35106 ft 439 kts 102°
2026-05-07 15:31 52.88246 1.81669 35109 ft 439 kts 102°
2026-05-07 15:31 52.87035 1.91588 35105 ft 440 kts 102°
2026-05-07 15:32 52.85812 2.01514 35103 ft 440 kts 102°
2026-05-07 15:32 52.84588 2.11438 35108 ft 441 kts 102°
2026-05-07 15:33 52.83348 2.21366 35108 ft 441 kts 102°
2026-05-07 15:33 52.82098 2.31303 35111 ft 441 kts 102°
2026-05-07 15:34 52.80837 2.41235 35110 ft 442 kts 102°
2026-05-07 15:34 52.79567 2.51173 35107 ft 442 kts 102°
2026-05-07 15:35 52.78294 2.61115 35108 ft 442 kts 102°
2026-05-07 15:35 52.77019 2.70997 35110 ft 443 kts 102°
2026-05-07 15:36 52.75723 2.80940 35112 ft 443 kts 102°
2026-05-07 15:36 52.74413 2.90882 35110 ft 443 kts 103°
2026-05-07 15:37 52.72962 3.00768 35109 ft 443 kts 110°
2026-05-07 15:37 52.70750 3.10257 35107 ft 443 kts 111°
2026-05-07 15:38 52.68519 3.19742 35109 ft 444 kts 111°
2026-05-07 15:38 52.66282 3.29225 35110 ft 444 kts 112°
2026-05-07 15:39 52.64047 3.38712 35111 ft 445 kts 109°
2026-05-07 15:39 52.62342 3.48501 35110 ft 445 kts 106°
2026-05-07 15:40 52.60658 3.58313 35103 ft 446 kts 106°
2026-05-07 15:40 52.58961 3.68127 35104 ft 446 kts 107°
2026-05-07 15:41 52.57253 3.77943 35101 ft 447 kts 107°
2026-05-07 15:41 52.56394 3.82856 34979 ft 447 kts 107°
2026-05-07 15:41 52.55532 3.87763 34743 ft 447 kts 107°
2026-05-07 15:42 52.54670 3.92665 34499 ft 447 kts 107°
2026-05-07 15:42 52.53803 3.97563 34264 ft 446 kts 107°
2026-05-07 15:42 52.52069 4.07322 34372 ft 446 kts 107°
2026-05-07 15:43 52.50327 4.17139 34383 ft 449 kts 107°
2026-05-07 15:43 52.48574 4.26973 34381 ft 450 kts 107°
2026-05-07 15:44 52.46798 4.36828 34335 ft 450 kts 107°
2026-05-07 15:44 52.45910 4.41738 33678 ft 449 kts 107°
2026-05-07 15:44 52.45021 4.46651 32824 ft 450 kts 107°
2026-05-07 15:45 52.44126 4.51581 31972 ft 452 kts 107°
2026-05-07 15:45 52.43225 4.56520 31121 ft 453 kts 108°
2026-05-07 15:45 52.42316 4.61482 30266 ft 455 kts 108°
2026-05-07 15:45 52.41404 4.66459 29219 ft 458 kts 108°
2026-05-07 15:46 52.39560 4.76508 27032 ft 464 kts 108°
2026-05-07 15:46 52.38624 4.81575 26271 ft 466 kts 108°
2026-05-07 15:46 52.37686 4.86635 25450 ft 463 kts 108°
2026-05-07 15:47 52.36754 4.91657 24702 ft 459 kts 108°
2026-05-07 15:47 52.35833 4.96628 23982 ft 455 kts 108°
2026-05-07 15:47 52.34914 5.01552 23210 ft 451 kts 108°
2026-05-07 15:47 52.34002 5.06427 22415 ft 446 kts 108°
2026-05-07 15:48 52.32936 5.11149 21628 ft 440 kts 115°
2026-05-07 15:48 52.31643 5.15665 21196 ft 437 kts 116°
2026-05-07 15:48 52.30348 5.20167 21051 ft 437 kts 116°
2026-05-07 15:48 52.29055 5.24668 21082 ft 438 kts 116°
2026-05-07 15:49 52.27762 5.29170 21077 ft 438 kts 116°
2026-05-07 15:49 52.26464 5.33684 21077 ft 439 kts 116°
2026-05-07 15:49 52.25165 5.38187 21078 ft 439 kts 116°
2026-05-07 15:49 52.23865 5.42690 21076 ft 439 kts 116°
2026-05-07 15:50 52.22562 5.47189 21077 ft 439 kts 116°
2026-05-07 15:50 52.21257 5.51687 21078 ft 439 kts 116°
2026-05-07 15:50 52.19949 5.56180 21064 ft 439 kts 116°
2026-05-07 15:50 52.18639 5.60666 21062 ft 439 kts 116°
2026-05-07 15:51 52.17326 5.65151 21059 ft 438 kts 116°
2026-05-07 15:51 52.16016 5.69619 20778 ft 434 kts 116°
2026-05-07 15:51 52.14721 5.74024 20003 ft 430 kts 116°
2026-05-07 15:51 52.13439 5.78390 19276 ft 425 kts 116°
2026-05-07 15:52 52.12171 5.82715 18558 ft 421 kts 116°
2026-05-07 15:52 52.10912 5.86999 17796 ft 417 kts 116°
2026-05-07 15:52 52.09665 5.91229 17217 ft 412 kts 116°
2026-05-07 15:52 52.08424 5.95438 17029 ft 413 kts 116°
2026-05-07 15:53 52.07179 5.99649 17057 ft 414 kts 116°
2026-05-07 15:53 52.05937 6.03837 16576 ft 409 kts 116°
2026-05-07 15:53 52.04699 6.07971 15845 ft 405 kts 118°
2026-05-07 15:53 52.03110 6.11695 15283 ft 397 kts 133°
2026-05-07 15:54 52.01093 6.14752 15038 ft 398 kts 143°
2026-05-07 15:54 51.98787 6.17216 14791 ft 397 kts 152°
2026-05-07 15:54 51.96270 6.19048 14542 ft 395 kts 162°
2026-05-07 15:54 51.93639 6.20291 14303 ft 394 kts 165°
2026-05-07 15:55 51.91001 6.21464 14056 ft 392 kts 165°
2026-05-07 15:55 51.88375 6.22627 13807 ft 391 kts 166°
2026-05-07 15:55 51.85755 6.23783 13544 ft 390 kts 165°
2026-05-07 15:55 51.83148 6.24935 13275 ft 388 kts 165°
2026-05-07 15:56 51.80550 6.26083 13010 ft 386 kts 165°
2026-05-07 15:56 51.77960 6.27223 12743 ft 385 kts 166°
2026-05-07 15:56 51.75388 6.28351 12399 ft 380 kts 166°
2026-05-07 15:56 51.72861 6.29459 11805 ft 372 kts 166°
2026-05-07 15:57 51.70384 6.30546 11214 ft 366 kts 166°
2026-05-07 15:57 51.67984 6.31601 11028 ft 349 kts 166°
2026-05-07 15:57 51.65715 6.32600 10897 ft 325 kts 166°
2026-05-07 15:57 51.63614 6.33524 10756 ft 303 kts 166°
2026-05-07 15:58 51.61619 6.34396 10356 ft 293 kts 166°
2026-05-07 15:58 51.59681 6.35241 10098 ft 287 kts 166°
2026-05-07 15:58 51.57751 6.36079 9925 ft 288 kts 166°
2026-05-07 15:58 51.55819 6.36917 9795 ft 287 kts 166°
2026-05-07 15:59 51.53889 6.37751 9656 ft 287 kts 166°
2026-05-07 15:59 51.51965 6.38588 9519 ft 286 kts 166°
2026-05-07 15:59 51.50041 6.39427 9382 ft 286 kts 166°
2026-05-07 15:59 51.48117 6.40265 9086 ft 287 kts 166°
2026-05-07 16:00 51.46184 6.41106 8617 ft 288 kts 166°
2026-05-07 16:00 51.44255 6.41943 8210 ft 286 kts 165°
2026-05-07 16:00 51.42331 6.42779 7767 ft 286 kts 165°
2026-05-07 16:00 51.40413 6.43611 7321 ft 286 kts 165°
2026-05-07 16:01 51.39242 6.44116 7242 ft 279 kts 165°
2026-05-07 16:01 51.37406 6.44909 7080 ft 269 kts 165°
2026-05-07 16:01 51.35611 6.45681 6784 ft 265 kts 165°
2026-05-07 16:01 51.33863 6.46433 6655 ft 254 kts 165°
2026-05-07 16:02 51.32188 6.47152 6483 ft 246 kts 165°
2026-05-07 16:02 51.30546 6.47858 6190 ft 243 kts 165°
2026-05-07 16:02 51.29463 6.48325 5975 ft 243 kts 165°
2026-05-07 16:02 51.27837 6.49027 5629 ft 242 kts 164°
2026-05-07 16:03 51.26197 6.49733 5215 ft 245 kts 164°
2026-05-07 16:03 51.24537 6.50448 4800 ft 247 kts 165°
2026-05-07 16:03 51.22906 6.51147 4374 ft 238 kts 165°
2026-05-07 16:03 51.21347 6.51822 3972 ft 226 kts 162°
2026-05-07 16:04 51.20045 6.53083 3441 ft 220 kts 129°
2026-05-07 16:04 51.19423 6.55196 3117 ft 204 kts 95°
2026-05-07 16:04 51.19559 6.57345 2942 ft 191 kts 69°
2026-05-07 16:04 51.20242 6.59096 2703 ft 183 kts 51°
2026-05-07 16:05 51.21009 6.60682 2466 ft 179 kts 51°
2026-05-07 16:05 51.21750 6.62221 2245 ft 169 kts 51°
2026-05-07 16:05 51.22435 6.63650 2022 ft 155 kts 51°
2026-05-07 16:05 51.23063 6.64959 1824 ft 143 kts 51°
2026-05-07 16:06 51.23657 6.66194 1581 ft 139 kts 51°
2026-05-07 16:06 51.24233 6.67393 1392 ft 135 kts 51°
2026-05-07 16:06 51.24812 6.68615 1232 ft 140 kts 51°
2026-05-07 16:06 51.25403 6.69845 1042 ft 140 kts 50°
2026-05-07 16:07 51.25997 6.71085 838 ft 141 kts 51°
2026-05-07 16:07 51.26577 6.72332 661 ft 140 kts 52°
2026-05-07 16:07 51.27176 6.73560 467 ft 139 kts 51°
2026-05-07 16:07 51.27766 6.74801 273 ft 141 kts 51°
2026-05-07 16:08 51.28360 6.76034 132 ft 135 kts 53°
2026-05-07 16:08 51.28847 6.77071 123 ft 92 kts 54°
2026-05-07 16:08 51.29027 6.77484 129 ft 17 kts 85°
2026-05-07 16:08 51.28994 6.77582 126 ft 8 kts 139°
2026-05-07 16:09 51.28953 6.77631 128 ft 7 kts 142°
2026-05-07 16:09 51.28901 6.77636 129 ft 10 kts 218°
2026-05-07 16:09 51.28856 6.77545 126 ft 12 kts 233°
2026-05-07 16:09 51.28793 6.77415 124 ft 18 kts 232°
2026-05-07 16:10 51.28714 6.77248 127 ft 19 kts 232°
2026-05-07 16:10 51.28633 6.77078 124 ft 20 kts 232°
2026-05-07 16:10 51.28546 6.76895 126 ft 22 kts 233°
2026-05-07 16:10 51.28448 6.76690 123 ft 24 kts 232°
2026-05-07 16:11 51.28355 6.76500 123 ft 15 kts 225°
2026-05-07 16:11 51.28265 6.76479 124 ft 12 kts 217°
2026-05-07 16:11 51.28235 6.76448 125 ft 6 kts 197°
2026-05-07 16:11 51.28200 6.76480 126 ft 7 kts 107°
2026-05-07 16:12 51.28194 6.76542 127 ft 1 kts 97°
2026-05-07 16:12 51.28194 6.76543 127 ft 0 kts 96°
2026-05-07 16:12 51.28194 6.76544 127 ft 0 kts 96°
2026-05-07 16:13 51.28193 6.76560 127 ft 0 kts 96°